Manteo, NC

3:22 AM EST on February 08, 2016 (GMT -0500)
Dare County Regional

Weather History for KMQI - November, 2013

Change the Weather History Date:

Thursday, November 21, 2013

  Actual Average (KECG) Record (KECG)
Temperature  
Mean Temperature 59 °F 52 °F  
Max Temperature 63 °F 62 °F 82 °F (1942)
Min Temperature 53 °F 41 °F 22 °F (1937)
Degree Days  
Heating Degree Days 6 14  
Month to date heating degree days 229  
Since 1 July heating degree days 380  
Cooling Degree Days 0 0  
Month to date cooling degree days 4  
Year to date cooling degree days 1585  
Growing Degree Days 9 (Base 50)    
Moisture  
Dew Point 53 °F    
Average Humidity 82    
Maximum Humidity 97    
Minimum Humidity 67    
Precipitation  
Precipitation 0.00 in 0.10 in 2.67 in (1952)
Month to date precipitation 2.23  
Year to date precipitation 43.19  
Snow  
Snow 0.00 in - 0.50 in (2008)
Month to date snowfall  
Since 1 July snowfall  
Snow Depth -    
Sea Level Pressure  
Sea Level Pressure 30.42 in    
Wind  
Wind Speed 6 mph (NE)    
Max Wind Speed 10 mph    
Max Gust Speed -    
Visibility 10 miles    
Events      
T = Trace of Precipitation, MM = Missing Value Source: NWS Daily Summary

Daily Weather History Graph

Daily Weather History Graph

Search for Another Location

Airport or City:

Trip Planner

Search our weather history database for the weather conditions in past years. The results will help you decide how hot, cold, wet, or windy it might be!

Date:

Astronomy

Nov. 21, 2013 Rise Set
Actual Time 6:45 AM EST 4:51 PM EST
Civil Twilight 6:17 AM EST 5:19 PM EST
Nautical Twilight 5:46 AM EST 5:50 PM EST
Astronomical Twilight 5:15 AM EST 6:21 PM EST
Moon 8:25 PM EST (11/21) 9:50 AM EST (11/21)
Length of Visible Light 11h 01m
Length of Day
10h 06m
Waning Gibbous, 85% of the Moon is Illuminated
Nov 21
Waning Gibbous
Nov 25
Last Quarter
Dec 2
New
Dec 9
First Quarter
Dec 17
Full

Hourly Weather History & Observations

Time (EST) Temp. Dew Point Humidity Pressure Visibility Wind Dir Wind Speed Gust Speed Precip Events Conditions
12:15 AM 55.9 °F 50.9 °F 83% 30.40 in 10.0 mi NE 9.2 mph - N/A   Overcast
12:35 AM 56.8 °F 51.1 °F 81% 30.40 in 10.0 mi NE 8.1 mph - N/A   Overcast
12:55 AM 57.2 °F 51.8 °F 82% 30.41 in 10.0 mi NE 5.8 mph - N/A   Overcast
1:15 AM 56.7 °F 51.8 °F 84% 30.41 in 10.0 mi NE 5.8 mph - N/A   Overcast
1:35 AM 57.2 °F 51.8 °F 82% 30.41 in 10.0 mi ENE 5.8 mph - N/A   Overcast
1:55 AM 57.9 °F 52.2 °F 81% 30.41 in 10.0 mi East 10.4 mph - N/A   Overcast
2:15 AM 57.4 °F 51.8 °F 82% 30.41 in 10.0 mi ENE 8.1 mph - N/A   Scattered Clouds
2:35 AM 57.2 °F 52.0 °F 83% 30.41 in 10.0 mi East 6.9 mph - N/A   Mostly Cloudy
2:55 AM 57.7 °F 52.3 °F 82% 30.41 in 10.0 mi ENE 6.9 mph - N/A   Overcast
3:15 AM 57.7 °F 52.3 °F 82% 30.41 in 10.0 mi ENE 5.8 mph - N/A   Overcast
3:35 AM 58.1 °F 52.3 °F 81% 30.41 in 10.0 mi East 5.8 mph - N/A   Overcast
3:55 AM 58.5 °F 52.0 °F 79% 30.41 in 10.0 mi ENE 8.1 mph - N/A   Overcast
4:15 AM 58.1 °F 52.3 °F 81% 30.41 in 10.0 mi East 6.9 mph - N/A   Overcast
4:35 AM 58.6 °F 51.8 °F 78% 30.41 in 10.0 mi East 6.9 mph - N/A   Overcast
4:55 AM 58.6 °F 50.9 °F 75% 30.41 in 10.0 mi East 6.9 mph - N/A   Overcast
5:15 AM 58.5 °F 50.5 °F 75% 30.41 in 10.0 mi East 6.9 mph - N/A   Overcast
5:35 AM 57.4 °F 51.1 °F 79% 30.41 in 10.0 mi East 6.9 mph - N/A   Mostly Cloudy
5:55 AM 58.3 °F 52.2 °F 80% 30.41 in 10.0 mi East 6.9 mph - N/A   Overcast
6:15 AM 59.2 °F 52.0 °F 77% 30.42 in 10.0 mi East 6.9 mph - N/A   Overcast
6:35 AM 59.4 °F 52.2 °F 77% 30.43 in 10.0 mi East 5.8 mph - N/A   Overcast
6:55 AM 59.4 °F 52.0 °F 77% 30.43 in 10.0 mi East 3.5 mph - N/A   Overcast
7:15 AM 59.2 °F 51.6 °F 76% 30.42 in 10.0 mi East 8.1 mph - N/A   Overcast
7:35 AM 58.6 °F 51.8 °F 78% 30.43 in 10.0 mi East 5.8 mph - N/A   Mostly Cloudy
7:55 AM 59.2 °F 52.2 °F 78% 30.44 in 10.0 mi East 6.9 mph - N/A   Mostly Cloudy
8:15 AM 59.9 °F 51.8 °F 75% 30.44 in 10.0 mi East 6.9 mph - N/A   Overcast
8:35 AM 60.6 °F 51.8 °F 73% 30.44 in 10.0 mi East 6.9 mph - N/A   Overcast
8:55 AM 60.8 °F 52.9 °F 75% 30.44 in 10.0 mi East 8.1 mph - N/A   Mostly Cloudy
9:15 AM 61.2 °F 52.7 °F 74% 30.44 in 10.0 mi East 8.1 mph - N/A   Overcast
9:35 AM 60.8 °F 52.9 °F 75% 30.45 in 10.0 mi ENE 5.8 mph - N/A   Overcast
9:55 AM 60.8 °F 52.9 °F 75% 30.46 in 10.0 mi East 3.5 mph - N/A   Overcast
10:15 AM 61.5 °F 52.9 °F 73% 30.45 in 10.0 mi East 5.8 mph - N/A   Overcast
10:35 AM 62.1 °F 52.3 °F 70% 30.45 in 10.0 mi ENE 4.6 mph - N/A   Overcast
10:55 AM 61.9 °F 52.9 °F 72% 30.45 in 10.0 mi East 4.6 mph - N/A   Overcast
11:15 AM 62.8 °F 52.7 °F 70% 30.44 in 10.0 mi East 4.6 mph - N/A   Overcast
11:35 AM 63.0 °F 52.3 °F 68% 30.43 in 10.0 mi East 6.9 mph - N/A   Overcast
11:55 AM 63.1 °F 52.2 °F 67% 30.43 in 10.0 mi East 5.8 mph - N/A   Overcast
12:15 PM 62.6 °F 52.0 °F 68% 30.43 in 10.0 mi East 4.6 mph - N/A   Overcast
12:35 PM 62.6 °F 51.6 °F 67% 30.43 in 10.0 mi NNW 3.5 mph - N/A   Overcast
12:55 PM 61.3 °F 53.2 °F 75% 30.43 in 10.0 mi NNW 4.6 mph - N/A   Overcast
1:15 PM 59.7 °F 52.7 °F 78% 30.43 in 10.0 mi NNW 5.8 mph - N/A   Overcast
1:35 PM 59.5 °F 52.5 °F 78% 30.43 in 10.0 mi North 6.9 mph - N/A   Overcast
1:55 PM 58.6 °F 52.7 °F 81% 30.43 in 10.0 mi North 9.2 mph - N/A   Overcast
2:15 PM 59.0 °F 53.1 °F 81% 30.43 in 10.0 mi NNE 8.1 mph - N/A   Overcast
2:35 PM 59.0 °F 53.4 °F 82% 30.42 in 10.0 mi NNE 6.9 mph - N/A   Overcast
2:55 PM 58.8 °F 52.9 °F 81% 30.42 in 10.0 mi NNE 9.2 mph - N/A   Overcast
3:15 PM 58.1 °F 53.2 °F 84% 30.42 in 10.0 mi NNE 8.1 mph - N/A   Overcast
3:35 PM 57.7 °F 53.8 °F 87% 30.42 in 10.0 mi NE 8.1 mph - N/A   Overcast
3:55 PM 57.9 °F 54.1 °F 87% 30.41 in 10.0 mi NE 5.8 mph - N/A   Overcast
4:15 PM 57.6 °F 54.1 °F 88% 30.41 in 10.0 mi NE 5.8 mph - N/A   Overcast
4:35 PM 57.4 °F 54.1 °F 89% 30.41 in 10.0 mi NE 4.6 mph - N/A   Overcast
4:55 PM 57.4 °F 54.0 °F 88% 30.41 in 10.0 mi NE 4.6 mph - N/A   Overcast
5:15 PM 57.2 °F 53.8 °F 88% 30.41 in 10.0 mi NE 3.5 mph - N/A   Overcast
5:35 PM 57.2 °F 53.8 °F 88% 30.41 in 10.0 mi NE 3.5 mph - N/A   Overcast
5:55 PM 57.4 °F 53.8 °F 88% 30.41 in 10.0 mi ENE 3.5 mph - N/A   Overcast
6:15 PM 57.4 °F 53.8 °F 88% 30.42 in 10.0 mi ENE 4.6 mph - N/A   Overcast
6:35 PM 57.4 °F 53.2 °F 86% 30.41 in 10.0 mi NNE 3.5 mph - N/A   Overcast
6:55 PM 57.4 °F 52.9 °F 85% 30.42 in 10.0 mi NNE 3.5 mph - N/A   Overcast
7:15 PM 56.5 °F 52.7 °F 87% 30.41 in 10.0 mi North 3.5 mph - N/A   Overcast
7:35 PM 56.1 °F 52.7 °F 88% 30.41 in 10.0 mi Calm Calm - N/A   Overcast
7:55 PM 55.6 °F 52.7 °F 90% 30.42 in 10.0 mi Calm Calm - N/A   Overcast
8:15 PM 55.6 °F 52.7 °F 90% 30.42 in 10.0 mi NNE 5.8 mph - N/A   Overcast
8:35 PM 55.8 °F 52.9 °F 90% 30.42 in 10.0 mi NNE 5.8 mph - N/A   Overcast
8:55 PM 56.5 °F 53.8 °F 91% 30.42 in 10.0 mi NNE 5.8 mph - N/A   Overcast
9:15 PM 56.7 °F 54.0 °F 91% 30.42 in 10.0 mi NNE 5.8 mph - N/A   Overcast
9:35 PM 56.5 °F 54.0 °F 91% 30.42 in 10.0 mi North 4.6 mph - N/A   Overcast
9:55 PM 56.3 °F 54.1 °F 92% 30.42 in 10.0 mi Calm Calm - N/A   Overcast
10:15 PM 56.3 °F 54.0 °F 92% 30.42 in 10.0 mi Calm Calm - N/A   Overcast
10:35 PM 55.9 °F 54.0 °F 93% 30.42 in 10.0 mi North 4.6 mph - N/A   Overcast
10:55 PM 55.6 °F 53.6 °F 93% 30.42 in 10.0 mi NNE 3.5 mph - N/A   Overcast
11:15 PM 55.6 °F 53.6 °F 93% 30.41 in 10.0 mi Calm Calm - N/A   Overcast
11:35 PM 55.2 °F 53.6 °F 94% 30.40 in 10.0 mi Calm Calm - N/A   Mostly Cloudy
11:55 PM 53.6 °F 52.7 °F 97% 30.40 in 10.0 mi Calm Calm - N/A   Mostly Cloudy